Weather in Divenskiy

Russia / Saint-Petersburg and Leningrad Oblast     59°12′30″N   30°01′02″E
temp.,
°C
wind,
m/s
gust,
m/s
humid.,
%
clouds,
%
prec.,
mm/h
press.,
hPa
HPBL,
m
7 march, sun
sun700:00−1wsw71593100 1.9 9921029
03:00−1nw61290100 4.8 9901232
06:00−5w61463100 0.2 9891565
09:00−7w4126764 0.2 9901141
12:00−6nw6107740 0.1 9911375
15:00−4wnw486570 0.3 9921300
18:00−6wnw5127468 0.0 992676
21:00−7nw5137984 0.0 994769
8 march, mon
mon800:00−7n51089100 0.1 997982
03:00−9n51189100 0.2 1001903
06:00−10n51189100 0.1 1004826
09:00−10n51187100 0.2 1008652
12:00−9n4881100 0.1 1011665
15:00−8n477585 0.1 1013767
18:00−9nnw378168 0.0 1015680
21:00−12n229582 0.0 101664
9 march, tue
tue900:00−14nnw229661 0.0 101742
03:00−15n129750 0.0 101845
06:00−16nne119759 0.0 101920
09:00−15e239179 0.0 1020222
12:00−12e2378100 0.0 1020426
15:00−10e3571100 0.0 1020503
18:00−12e3674100 0.0 1020554
21:00−14e4883100 0.0 1022406
10 march, wed
wed1000:00−16e4109033 0.0 1023374
03:00−17ene389219 0.0 1025313
06:00−18ene37925 0.0 1026259
09:00−17e36782 0.0 1027229
12:00−12e366482 0.0 1028336
15:00−9e355870 0.0 1029618
18:00−10ene257328 0.0 1029164
21:00−14e258718 0.0 1029107
11 march, thu
thu1100:00−15ese238851 0.0 103079
03:00−15se249126 0.0 1029101
06:00−15se39900 0.0 1027209
09:00−13sse410740 0.0 1026409
12:00−9sse511580 0.0 1024718
15:00−7sse611620 0.0 1021737
18:00−8sse5127619 0.0 1018646
21:00−8sse6149156 0.1 1015631